Skip Navigation Links weather.gov 
NOAA logo-Select to go to the NOAA homepage NDBC Title GraphicClick to go to NDBC home page   Select to go to the NWS homepage
Home About Us Contact Us
 
 
    
    Station List

 Data Access
    Mobile Access
    Interactive Maps
         All Stations
         DART®
    Obs Search
    Ship Obs Report
    BuoyCAMs
    TAO
    DODS
    OceanSITES
    HF Radar
    OSMC
    Dial-A-Buoy
    RSS Feeds Image indicating link to RSS feed access page
    Web Widget
    Web Data Guide
    Maintenance Schedule
    Station Status Report

 Program Info
    TAO
    DART®
    IOOS®

 Publications
    NDBC PEA
    NDBC FONSI
    NDBC DQC Handbook

 Visitor Information
 
USA.gov is the U.S. government's official web portal to all federal, state and local government web resources and services.

Station SLXA2 - Salmon Landing, AK Image indicating link to RSS feed of recent meteorological observations for station SLXA2

Owned and maintained by Marine Exchange of Alaska
C-MAN Station
55.340 N 131.644 W (55°20'22" N 131°38'39" W)

Site elevation: 6.7 m above mean sea level
Air temp height: 18 m above site elevation
Anemometer height: 18 m above site elevation
Barometer elevation: 24.1 m above mean sea level

Search And Rescue (SAR) Data

Meteorological Observations from Nearby Stations and Ships Image indicating link to RSS feed of recent meteorological observations near station SLXA2

Large icon indicates selected station.
yellow diamond Stations with recent data
red diamond Stations with no data in last 8 hours
     (24 hours for tsunami stations)


Conditions at SLXA2 as of
(1:03 am AKST)
1003 GMT on 01/20/2022:
     

Click on the graph icon in the table below to see a time series plot of the last five days of that observation.

5-day plot - Wind Direction Wind Direction (WDIR): SSE ( 150 deg true )
5-day plot - Wind Speed Wind Speed (WSPD): 16 kts
5-day plot - Wind Gust Wind Gust (GST): 22 kts
5-day plot - Atmospheric Pressure Atmospheric Pressure (PRES): 29.35 in
5-day plot - Air Temperature Air Temperature (ATMP): 44.8 °F
5-day plot - Dew Point Dew Point (DEWP): 42.3 °F
5-day plot - Wind Chill Wind Chill (CHILL): 37.0 °F
5-day plot - Wind Speed at 10 Meters Wind Speed at 10 meters (WSPD10M): 14 kts
5-day plot - Wind Speed at 10 Meters Wind Speed at 20 meters (WSPD20M): 16 kts
5-day plot - Wind Speed, Wind Gust and Atmospheric Pressure Combined plot of Wind Speed, Gust, and Air Pressure
Previous observations
5-day plot - Wind Direction 5-day plot - Wind Speed 5-day plot - Wind Gust 5-day plot - Wave Height 5-day plot - Dominant Wave Period 5-day plot - Average Period 5-day plot - Mean Wave Direction 5-day plot - Atmospheric Pressure 5-day plot - Pressure Tendency 5-day plot - Air Temperature 5-day plot - Water Temperature 5-day plot - Dew Point 5-day plot - Salinity 5-day plot - Visibility 5-day plot - Tide (above MLLW)
MM DD TIME
(AKST)
WDIR WSPD
kts
GST
kts
WVHT
ft
DPD
sec
APD
sec
MWD PRES
in
PTDY
in
ATMP
°F
WTMP
°F
DEWP
°F
SAL
psu
VIS
nmi
TIDE
ft
012012:53 amSSE 15 22----29.35- 44.8- 42.3---
012012:43 amSSE 15 23----29.35- 45.1- 42.6---
012012:23 am S 16 25----29.34- 45.7- 43.0---
012012:13 amSSE 18 29----29.34- 45.9- 43.2---
012012:03 amSSE 18 25----29.34- 45.7- 43.0---
011911:53 pmSSE 17 26----29.34- 45.5- 43.0---
011911:43 pmSSE 16 24----29.34- 44.6- 42.1---
011911:33 pm SE 17 24----29.34- 44.2- 41.5---
011911:23 pmSSE 17 24----29.33- 44.6- 41.9---
011911:13 pmSSE 16 22----29.33- 44.4- 41.7---
011911:03 pm S 16 22----29.33- 44.6- 41.7---
011910:53 pmSSE 16 26----29.34- 44.4- 41.5---
011910:43 pmSSE 18 28----29.34- 45.0- 41.7---
011910:33 pm SE 16 28----29.34- 45.7- 42.1---
011910:23 pm SE 17 27----29.34- 45.5- 41.9---
011910:13 pm SE 15 23----29.34- 45.1- 41.5---
011910:03 pm SE 16 28----29.34- 45.0- 41.4---
0119 9:53 pmESE 17 26----29.34- 44.6- 41.0---
0119 9:43 pm SE 18 35----29.34- 44.4- 41.0---
0119 9:33 pmESE 21 32----29.34- 44.8- 40.8---
0119 9:23 pmESE 23 35----29.34- 45.3- 40.1---
0119 9:13 pmESE 24 37----29.35- 45.7- 40.1---
0119 9:03 pmESE 24 37----29.35- 45.3- 39.9---
0119 8:53 pmESE 25 40----29.35- 45.1- 40.3---
0119 8:43 pmESE 25 38----29.35- 44.6- 40.3---
0119 8:33 pmESE 22 33----29.36- 44.6- 39.7---
0119 8:23 pmESE 22 31----29.36- 45.0- 39.6---
0119 8:13 pmESE 19 32----29.36- 44.8- 39.2---
0119 8:03 pmESE 20 34----29.37- 44.8- 39.0---
0119 7:53 pmESE 20 30----29.38- 44.8- 39.0---
0119 7:43 pmESE 23 36----29.38- 45.0- 38.8---
0119 7:33 pmESE 20 32----29.39- 44.8- 38.5---
0119 7:23 pmESE 20 30----29.39- 44.8- 38.5---
0119 7:13 pmESE 18 27----29.39- 45.0- 38.5---
0119 7:03 pmESE 15 28----29.40- 45.0- 38.5---
0119 6:53 pmSSE 14 24----29.40- 43.9- 38.5---
0119 6:43 pm SE 15 26----29.41- 44.4- 38.7---
0119 6:33 pmESE 13 22----29.41- 44.4- 38.7---
0119 6:23 pmESE 16 26----29.42- 44.6- 38.5---
0119 6:13 pmESE 16 25----29.43- 44.6- 38.5---
0119 6:03 pmESE 16 28----29.44- 44.4- 38.3---
0119 5:53 pmESE 17 30----29.44- 44.6- 38.1---
0119 5:43 pmESE 18 33----29.46- 44.4- 38.1---
0119 5:33 pmESE 16 25----29.47- 44.2- 37.9---
0119 5:23 pmESE 18 33----29.47- 44.2- 37.9---
0119 5:13 pmESE 18 29----29.48- 44.2- 37.9---
0119 5:03 pmESE 19 31----29.49- 44.2- 37.8---
0119 4:53 pmESE 16 31----29.50- 44.1- 37.9---
0119 4:43 pmESE 17 26----29.51- 43.9- 37.6---
0119 4:33 pmESE 19 30----29.52- 44.4- 37.6---
0119 4:23 pmESE 19 29----29.52- 44.2- 37.6---
0119 4:13 pmESE 16 26----29.54- 43.9- 37.6---
0119 4:03 pmESE 16 30----29.54- 43.7- 37.6---
0119 3:53 pmESE 17 29----29.55- 43.7- 37.6---
0119 3:43 pmESE 18 31----29.56- 44.1- 37.4---
0119 3:33 pmESE 19 32----29.57- 43.9- 37.2---
0119 3:23 pmESE 22 36----29.57- 44.1- 37.2---
0119 3:13 pmESE 18 31----29.57- 43.7- 37.0---
0119 2:53 pmESE 17 28----29.59- 43.3- 37.0---
0119 2:43 pmESE 17 29----29.61- 43.2- 36.9---
0119 2:33 pmESE 18 30----29.61- 43.0- 36.9---
0119 2:23 pmESE 18 33----29.62- 43.0- 36.7---
0119 2:13 pmESE 18 32----29.63- 42.8- 36.7---
0119 2:03 pmESE 18 31----29.63- 42.6- 36.5---
0119 1:53 pmESE 18 34----29.64- 42.6- 36.3---
0119 1:43 pmESE 19 30----29.64- 42.8- 36.5---
0119 1:33 pmESE 18 30----29.65- 42.8- 36.3---
0119 1:23 pmESE 19 30----29.65- 42.8- 36.3---
0119 1:13 pmESE 18 30----29.66- 42.3- 36.1---
0119 1:03 pmESE 23 36----29.66- 42.8- 36.1---
011912:53 pmESE 21 39----29.66- 42.8- 36.1---
011912:43 pmESE 19 33----29.67- 43.0- 36.0---
011912:33 pmESE 19 34----29.67- 42.8- 36.0---
011912:23 pmESE 20 32----29.68- 42.6- 36.0---
011912:13 pmESE 24 37----29.69- 42.8- 35.8---
011912:03 pmESE 19 33----29.70- 42.3- 35.8---
011911:53 amESE 20 32----29.71- 42.3- 35.6---
011911:43 amESE 21 35----29.71- 42.4- 35.6---
011911:33 amESE 22 39----29.71- 42.6- 35.4---
011911:23 amESE 21 35----29.71- 42.4- 35.4---
011911:13 amESE 24 39----29.72- 42.3- 35.2---
011911:03 amESE 24 39----29.72- 42.1- 35.2---
011910:53 amESE 22 36----29.73- 41.7- 35.1---
011910:43 amESE 25 39----29.74- 41.5- 34.9---
011910:33 amESE 25 38----29.74- 41.9- 34.9---
011910:23 amESE 26 43----29.74- 42.3- 34.7---
011910:13 amESE 28 45----29.74- 42.6- 34.7---
011910:03 amESE 28 43----29.75- 43.0- 34.7---
0119 9:53 amESE 28 44----29.75- 43.2- 34.5---
0119 9:43 amESE 28 44----29.76- 43.2- 34.7---
0119 9:33 amESE 26 42----29.77- 43.0- 34.5---
0119 9:23 amESE 27 47----29.77- 42.6- 34.5---
0119 9:13 amESE 28 44----29.78- 42.8- 34.5---
0119 9:03 amESE 27 42----29.78- 42.8- 34.7---
0119 8:53 amESE 25 40----29.79- 42.4- 34.7---
0119 8:43 amESE 22 39----29.80- 41.9- 34.7---
0119 8:33 amESE 25 39----29.80- 42.4- 34.7---
0119 8:23 amESE 24 38----29.80- 42.4- 34.7---
0119 8:13 amESE 23 35----29.80- 42.6- 34.9---
0119 8:03 amESE 22 37----29.80- 42.4- 35.1---
0119 7:53 amESE 22 36----29.80- 42.6- 35.1---
0119 7:43 amESE 22 34----29.80- 42.6- 35.1---
0119 7:33 amESE 21 33----29.81- 43.0- 35.1---
0119 7:23 amESE 20 31----29.81- 43.0- 35.4---
0119 7:13 amESE 19 30----29.82- 43.0- 35.4---
0119 7:03 amESE 21 30----29.82- 43.2- 35.4---
0119 6:53 amESE 18 34----29.83- 43.2- 35.6---
0119 6:43 amESE 18 29----29.83- 43.2- 35.6---
0119 6:33 amESE 15 26----29.83- 42.6- 35.2---
0119 6:23 amESE 19 29----29.83- 42.3- 35.1---
0119 6:13 am SE 17 30----29.84- 41.7- 34.9---
0119 6:03 am SE 21 32----29.85- 41.2- 34.2---
0119 5:53 am SE 16 27----29.85- 41.0- 34.2---
0119 5:43 am SE 13 26----29.86- 40.8- 34.3---
0119 5:33 amESE 7 20----29.87- 39.4- 33.6---
0119 5:23 am SE 13 29----29.87- 40.3- 34.0---
0119 5:13 amSSE 7 16----29.88- 39.0- 33.4---
0119 5:03 am N 3 8----29.88- 37.9- 32.7---
0119 4:53 am E 3 10----29.90- 38.1- 32.5---
0119 4:43 amENE 4 10----29.90- 38.3- 32.4---
0119 4:33 amESE 4 9----29.91- 38.1- 32.4---
0119 4:23 am E 4 8----29.91- 37.9- 31.8---
0119 4:13 am E 6 13----29.91- 38.8- 31.6---
0119 4:03 amESE 9 24----29.91- 39.9- 32.0---
0119 3:53 am E 5 14----29.92- 38.8- 31.3---
0119 3:43 am E 9 21----29.92- 40.3- 31.6---
0119 3:33 am E 9 18----29.93- 41.0- 31.5---
0119 3:23 am E 9 21----29.93- 41.2- 31.1---
0119 3:13 amESE 11 20----29.94- 41.5- 31.1---
0119 3:03 amESE 15 25----29.95- 41.2- 31.5---
0119 2:53 amESE 14 26----29.95- 41.4- 30.9---
0119 2:43 amESE 14 24----29.96- 41.4- 30.4---
0119 2:33 amESE 14 28----29.96- 41.0- 30.6---
0119 2:23 amESE 13 30----29.96- 41.4- 30.0---
0119 2:13 amESE 13 23----29.96- 40.8- 29.1---
0119 2:03 am SE 14 23----29.96- 41.0- 28.6---
0119 1:53 amESE 12 21----29.97- 42.3- 28.8---
0119 1:43 amESE 15 24----29.97- 42.4- 28.6---
0119 1:33 amESE 14 23----29.97- 42.1- 28.0---
0119 1:23 amESE 13 25----29.97- 41.7- 27.5---
0119 1:13 amESE 15 24----29.97- 42.1- 27.0---
0119 1:03 amESE 15 25----29.98- 42.6- 26.6---
011912:53 amESE 13 22----29.98- 42.6- 26.8---

Description of Measurements

Links which are specific to this station are listed below:

Real Time Data in tabular form for the last forty-five days.

Historical Data & Climatic Summaries for quality controlled data for the current month, previous months, and previous years.